Weather History for Willmar, MN

Change the Weather History Date:

Thursday, February 27, 2014

  Actual Average (KLJF) Record (KLJF)
Temperature  
Mean Temperature -8 °F -  
Max Temperature -2 °F 35 °F 54 °F (1958)
Min Temperature -14 °F 16 °F -17 °F (1956)
Degree Days  
Heating Degree Days 73    
Moisture  
Dew Point -22 °F    
Average Humidity 54    
Maximum Humidity 65    
Minimum Humidity 42    
Precipitation  
Precipitation 0.00 in - - ()
Sea Level Pressure  
Sea Level Pressure 30.09 in    
Wind  
Wind Speed 10 mph (NNW)    
Max Wind Speed 21 mph    
Max Gust Speed 26 mph    
Visibility 10 miles    
Events      
Averages and records for this station are not official NWS values.
T = Trace of Precipitation, MM = Missing Value Source: NWS Daily Summary

Daily Weather History Graph

Daily Weather History Graph

Search for Another Location

Airport:

Trip Planner

Search our weather history database for the weather conditions in past years. The results will help you decide how hot, cold, wet, or windy it might be!

Date:

Astronomy

Feb. 27, 2014 Rise Set
Actual Time 7:01 AM CST 6:05 PM CST
Civil Twilight 6:32 AM CST 6:34 PM CST
Nautical Twilight 5:58 AM CST 7:08 PM CST
Astronomical Twilight 5:24 AM CST 7:43 PM CST
Moon 5:38 AM CST (2/27) 4:29 PM CST (2/27)
Length of Visible Light 12h 02m
Length of Day
11h 03m
Waning Crescent, 4% of the Moon is Illuminated
Feb 27
Waning Crescent
Mar 1
New
Mar 8
First Quarter
Mar 16
Full
Mar 23
Last Quarter

Hourly Weather History & Observations

Time (CST) Temp. Windchill Dew Point Humidity Pressure Visibility Wind Dir Wind Speed Gust Speed Precip Events Conditions
12:15 AM -5.8 °F -29.4 °F -18.4 °F 55% 30.01 in 10.0 mi NNW 19.6 mph - N/A   Clear
12:36 AM -5.8 °F -29.9 °F -18.4 °F 55% 30.02 in 10.0 mi NNW 20.7 mph 25.3 mph N/A   Clear
12:55 AM -7.6 °F -28.3 °F -20.2 °F 54% 30.03 in 10.0 mi NW 13.8 mph 23.0 mph N/A   Clear
1:15 AM -7.6 °F -26.6 °F -18.4 °F 59% 30.04 in 10.0 mi NNW 11.5 mph - N/A   Clear
1:36 AM -7.6 °F -32.3 °F -22.0 °F 50% 30.04 in 10.0 mi NNW 20.7 mph 26.5 mph N/A   Clear
1:55 AM -7.6 °F -29.1 °F -22.0 °F 50% 30.05 in 10.0 mi NNW 15.0 mph - N/A   Clear
2:15 AM -9.4 °F -30.6 °F -23.8 °F 49% 30.06 in 10.0 mi NNW 13.8 mph - N/A   Clear
2:36 AM -9.4 °F -30.6 °F -23.8 °F 49% 30.07 in 10.0 mi NNW 13.8 mph - N/A   Clear
2:55 AM -9.4 °F -27.9 °F -23.8 °F 49% 30.07 in 10.0 mi NW 10.4 mph - N/A   Clear
3:15 AM -11.2 °F -30.1 °F -23.8 °F 54% 30.08 in 10.0 mi NW 10.4 mph - N/A   Clear
3:36 AM -11.2 °F -30.1 °F -23.8 °F 54% 30.09 in 10.0 mi NW 10.4 mph - N/A   Clear
3:55 AM -11.2 °F -31.1 °F -23.8 °F 54% 30.09 in 10.0 mi NW 11.5 mph - N/A   Clear
4:15 AM -11.2 °F -27.8 °F -23.8 °F 54% 30.10 in 10.0 mi NW 8.1 mph - N/A   Clear
4:36 AM -11.2 °F -31.1 °F -23.8 °F 54% 30.11 in 10.0 mi NW 11.5 mph - N/A   Clear
4:55 AM -11.2 °F -30.1 °F -25.6 °F 49% 30.12 in 10.0 mi NW 10.4 mph - N/A   Clear
5:15 AM -14.8 °F -32.2 °F -25.6 °F 58% 30.12 in 10.0 mi NW 8.1 mph - N/A   Clear
5:36 AM -13.0 °F -28.6 °F -25.6 °F 53% 30.13 in 10.0 mi NW 6.9 mph - N/A   Clear
5:55 AM -14.8 °F -30.8 °F -25.6 °F 58% 30.14 in 10.0 mi WNW 6.9 mph - N/A   Clear
6:15 AM -14.8 °F -32.2 °F -25.6 °F 58% 30.14 in 10.0 mi WNW 8.1 mph - N/A   Clear
6:36 AM -14.8 °F -33.5 °F -23.8 °F 64% 30.15 in 10.0 mi NW 9.2 mph - N/A   Clear
6:55 AM -14.8 °F -33.5 °F -23.8 °F 64% 30.14 in 10.0 mi NW 9.2 mph - N/A   Clear
7:15 AM -14.8 °F -33.5 °F -23.8 °F 64% 30.15 in 10.0 mi NW 9.2 mph - N/A   Clear
7:36 AM -14.8 °F -35.6 °F -23.8 °F 64% 30.15 in 10.0 mi NW 11.5 mph - N/A   Clear
7:55 AM -14.8 °F -32.2 °F -23.8 °F 64% 30.16 in 10.0 mi WNW 8.1 mph - N/A   Clear
8:15 AM -14.8 °F -32.2 °F -23.8 °F 64% 30.17 in 10.0 mi NW 8.1 mph - N/A   Clear
8:36 AM -14.8 °F -33.5 °F -23.8 °F 64% 30.16 in 10.0 mi NNW 9.2 mph - N/A   Clear
8:55 AM -13.0 °F -28.6 °F -23.8 °F 59% 30.17 in 10.0 mi NNW 6.9 mph - N/A   Clear
9:15 AM -11.2 °F -26.4 °F -23.8 °F 54% 30.17 in 10.0 mi NNW 6.9 mph - N/A   Clear
9:36 AM -11.2 °F -29.0 °F -23.8 °F 54% 30.18 in 10.0 mi North 9.2 mph - N/A   Clear
9:55 AM -11.2 °F -24.8 °F -25.6 °F 49% 30.18 in 10.0 mi North 5.8 mph - N/A   Clear
10:15 AM -9.4 °F -20.9 °F -25.6 °F 45% 30.18 in 10.0 mi NNW 4.6 mph - N/A   Clear
10:36 AM -9.4 °F -18.6 °F -25.6 °F 45% 30.18 in 10.0 mi NNW 3.5 mph - N/A   Clear
10:55 AM -9.4 °F -20.9 °F -23.8 °F 49% 30.18 in 10.0 mi NW 4.6 mph - N/A   Clear
11:15 AM -7.6 °F - -23.8 °F 45% 30.18 in 10.0 mi Calm Calm - N/A   Clear
11:36 AM -7.6 °F - -23.8 °F 45% 30.18 in 10.0 mi Calm Calm - N/A   Clear
11:55 AM -7.6 °F - -23.8 °F 45% 30.18 in 10.0 mi Calm Calm - N/A   Clear
12:15 PM -7.6 °F -16.5 °F -22.0 °F 50% 30.17 in 10.0 mi West 3.5 mph - N/A   Clear
12:36 PM -5.8 °F - -22.0 °F 46% 30.16 in 10.0 mi Calm Calm - N/A   Clear
12:55 PM -5.8 °F - -23.8 °F 42% 30.16 in 10.0 mi Calm Calm - N/A   Clear
1:15 PM -5.8 °F -14.5 °F -20.2 °F 50% 30.15 in 10.0 mi NW 3.5 mph - N/A   Clear
1:36 PM -4.0 °F - -20.2 °F 46% 30.14 in 10.0 mi Calm Calm - N/A   Clear
1:55 PM -4.0 °F - -20.2 °F 46% 30.13 in 10.0 mi Calm Calm - N/A   Clear
2:15 PM -2.2 °F - -18.4 °F 46% 30.12 in 10.0 mi Calm Calm - N/A   Clear
2:36 PM -2.2 °F - -18.4 °F 46% 30.11 in 10.0 mi Calm Calm - N/A   Clear
2:55 PM -2.2 °F - -18.4 °F 46% 30.11 in 10.0 mi Calm Calm - N/A   Clear
3:15 PM -2.2 °F - -20.2 °F 42% 30.10 in 10.0 mi Calm Calm - N/A   Clear
3:36 PM -2.2 °F - -20.2 °F 42% 30.10 in 10.0 mi Calm Calm - N/A   Clear
3:55 PM -2.2 °F -12.5 °F -18.4 °F 46% 30.09 in 10.0 mi SSE 4.6 mph - N/A   Clear
4:15 PM -2.2 °F -12.5 °F -18.4 °F 46% 30.09 in 10.0 mi SSE 4.6 mph - N/A   Clear
4:36 PM -2.2 °F -14.2 °F -16.6 °F 50% 30.09 in 10.0 mi SSE 5.8 mph - N/A   Clear
4:55 PM -2.2 °F -15.6 °F -18.4 °F 46% 30.08 in 10.0 mi SE 6.9 mph - N/A   Clear
5:16 PM -2.2 °F -14.2 °F -18.4 °F 46% 30.07 in 10.0 mi SE 5.8 mph - N/A   Clear
5:35 PM -4.0 °F -17.8 °F -18.4 °F 50% 30.07 in 10.0 mi SE 6.9 mph - N/A   Clear
5:55 PM -5.8 °F -19.9 °F -18.4 °F 55% 30.07 in 10.0 mi SE 6.9 mph - N/A   Clear
6:15 PM -7.6 °F -23.4 °F -18.4 °F 59% 30.06 in 10.0 mi SE 8.1 mph - N/A   Clear
6:36 PM -7.6 °F -24.6 °F -16.6 °F 65% 30.06 in 10.0 mi ESE 9.2 mph - N/A   Clear
6:55 PM -7.6 °F -25.7 °F -18.4 °F 59% 30.05 in 10.0 mi ESE 10.4 mph - N/A   Clear
7:16 PM -7.6 °F -23.4 °F -18.4 °F 59% 30.05 in 10.0 mi SE 8.1 mph - N/A   Clear
7:35 PM -9.4 °F -26.8 °F -18.4 °F 65% 30.05 in 10.0 mi SE 9.2 mph - N/A   Clear
7:55 PM -9.4 °F -27.9 °F -20.2 °F 59% 30.04 in 10.0 mi SE 10.4 mph - N/A   Clear
8:16 PM -9.4 °F -26.8 °F -20.2 °F 59% 30.03 in 10.0 mi SE 9.2 mph - N/A   Clear
8:35 PM -9.4 °F -26.8 °F -20.2 °F 59% 30.04 in 10.0 mi SE 9.2 mph - N/A   Clear
8:56 PM -9.4 °F -27.9 °F -22.0 °F 54% 30.03 in 10.0 mi ESE 10.4 mph - N/A   Clear
9:15 PM -9.4 °F -27.9 °F -22.0 °F 54% 30.02 in 10.0 mi ESE 10.4 mph - N/A   Clear
9:36 PM -11.2 °F -29.0 °F -20.2 °F 64% 30.01 in 10.0 mi ESE 9.2 mph - N/A   Clear
9:55 PM -11.2 °F -29.0 °F -20.2 °F 64% 30.01 in 10.0 mi SE 9.2 mph - N/A   Clear
10:15 PM -11.2 °F -29.0 °F -20.2 °F 64% 30.01 in 10.0 mi SE 9.2 mph - N/A   Clear
10:36 PM -11.2 °F -29.0 °F -20.2 °F 64% 30.01 in 10.0 mi SE 9.2 mph - N/A   Clear
10:56 PM -9.4 °F -26.8 °F -20.2 °F 59% 30.00 in 10.0 mi SE 9.2 mph - N/A   Clear
11:15 PM -9.4 °F -27.9 °F -20.2 °F 59% 29.99 in 10.0 mi SE 10.4 mph - N/A   Clear
11:35 PM -9.4 °F -27.9 °F -18.4 °F 65% 29.98 in 10.0 mi SE 10.4 mph - N/A   Clear
11:55 PM -9.4 °F -27.9 °F -18.4 °F 65% 29.97 in 10.0 mi SE 10.4 mph - N/A   Clear